Вернуться в каталог

METEOR 2-17 DEB

АктивенPO
NORAD 28989·DEBRIS·🇷🇺 Russia

Запущен Jan 30, 1988 с Plesetsk Cosmodrome

Loading…

Ближайшие Пролёты (ближайшие 24 часа)

TLE

УстаревшееSource: Space-Track

Эпоха: Sep 1, 2026, 00:43 UTC

1 28989U 88005D   26244.03027659  .00002379  00000-0  12160-2 0  9990
2 28989  82.5280 148.2948 0027959 187.9613 172.1125 14.15040622671554

Отслеживайте METEOR 2-17 DEB в реальном времени с AllMySat

Download on the App Store